Simultaneous Nadir Overpasses (SNOs) Predictions

Prediction of SNOs between NOAA-21 and LANDSAT-8 Satellite Orbit:

Table of predicted SNOs for the next 14.0 days since TLE Epoch: 9/28/2024
Index Date (NOAA-21) Time (NOAA-21) Lat,Lon (NOAA-21) SZA (NOAA-21 ) Date (LANDSAT-8) Time (LANDSAT-8) Lat,Lon (LANDSAT-8) SZA (LANDSAT-8 ) Distance(km) Time Diff (sec)
1 09/28/2024 06:20:24 -70.16, -98.79 107.71 09/28/2024 06:21:08 -70.15, -98.77 107.72 1.18 44
2 09/28/2024 07:11:08 70.02, 68.73 72.17 09/28/2024 07:10:35 70.05, 68.73 72.19 3.19 33
3 09/30/2024 21:46:49 70.59,-151.02 73.75 09/30/2024 21:47:59 70.49,-150.02 73.64 38.96 70
4 09/30/2024 22:37:23 -70.09, 17.08 106.74 09/30/2024 22:37:34 -70.10, 17.05 106.74 1.09 11
5 09/30/2024 23:28:08 70.01,-175.49 73.19 09/30/2024 23:27:01 69.99,-175.46 73.17 2.24 67
6 10/03/2024 14:03:41 70.17, -34.61 74.36 10/03/2024 14:04:29 70.15, -34.61 74.34 2.62 48
7 10/03/2024 14:54:22 -70.04, 132.91 105.76 10/03/2024 14:53:59 -70.03, 132.87 105.77 1.91 23
8 10/06/2024 05:30:06 -70.85, -87.24 103.94 10/06/2024 05:31:15 -70.74, -85.47 104.06 65.93 69
9 10/06/2024 06:20:39 70.14, 81.20 75.36 10/06/2024 06:20:51 70.13, 81.28 75.35 3.18 12
10 10/06/2024 07:11:20 -70.01,-111.28 104.76 10/06/2024 07:10:21 -70.02,-111.24 104.75 1.92 59
11 10/08/2024 21:46:52 -70.16, 29.63 103.62 10/08/2024 21:47:47 -70.18, 29.61 103.60 2.32 55
12 10/08/2024 22:37:37 70.08,-162.94 76.32 10/08/2024 22:37:14 70.06,-162.91 76.30 2.49 23
13 10/08/2024 23:28:04 -69.21, 5.66 104.55 10/08/2024 23:26:56 -69.29, 3.67 104.46 79.02 68
14 10/11/2024 13:13:21 70.88, -23.08 78.11 10/11/2024 13:14:29 70.76, -21.25 77.99 68.28 68
15 10/11/2024 14:03:50 -70.11, 145.47 102.65 10/11/2024 14:04:09 -70.10, 145.42 102.67 2.19 19
16 10/11/2024 14:54:34 69.98, -47.03 77.24 10/11/2024 14:53:36 69.98, -47.10 77.23 2.89 58



Historial Predications of SNOs between NOAA-21 and LANDSAT-8
